DW9007 Weather Reports


Display with metric or nautical units.
time (UTC)temp
F
wind
direction
speed
MPH
gust
MPH
rain 1hr
in
rain 24hr
in
rain mn
in
humidity
%
barometer
mb
20260505140107 63 196 1.0 6.0 0.00 0.00 0.00 80 1013.8
20260505124501 56 173 0.0 0.0 0.00 0.00 0.00 90 1013.3
20260505123106 55 173 0.0 0.0 0.00 0.00 0.00 90 1013.0
20260505121548 54 173 0.0 0.0 0.00 0.00 0.00 90 1012.8
20260505120049 54 173 0.0 0.0 0.00 0.00 0.00 89 1012.9
20260505114546 53 173 0.0 0.0 0.00 0.00 0.00 89 1012.6
20260505113049 53 173 0.0 0.0 0.00 0.00 0.00 89 1012.4
20260505111545 53 173 0.0 0.0 0.00 0.00 0.00 88 1012.3
20260505101532 54 173 0.0 0.0 0.00 0.00 0.00 86 1011.7
20260505100024 54 173 0.0 0.0 0.00 0.00 0.00 86 1011.8
20260505094502 55 173 0.0 0.0 0.00 0.00 0.00 84 1011.8
20260505093004 55 173 0.0 0.0 0.00 0.00 0.00 85 1012.1
20260505091559 55 173 0.0 0.0 0.00 0.00 0.00 83 1012.1
20260505090045 56 173 0.0 0.0 0.00 0.00 0.00 83 1012.1
20260505084522 56 174 0.0 0.0 0.00 0.00 0.00 82 1012.4
20260505083025 56 173 0.0 0.0 0.00 0.00 0.00 82 1012.3
20260505081505 57 174 0.0 0.0 0.00 0.00 0.00 81 1012.5
20260505080003 57 174 0.0 0.0 0.00 0.00 0.00 81 1012.6
20260505074544 57 174 0.0 0.0 0.00 0.00 0.00 81 1012.7
20260505073047 57 174 0.0 0.0 0.00 0.00 0.00 79 1012.9
20260505071525 57 174 0.0 2.0 0.00 0.00 0.00 80 1012.7
20260505070026 57 173 0.0 0.0 0.00 0.00 0.00 79 1012.6
20260505064508 57 173 0.0 0.0 0.00 0.00 0.00 79 1012.6
20260505063007 57 173 0.0 0.0 0.00 0.00 0.00 79 1012.8
20260505061615 57 173 0.0 0.0 0.00 0.00 0.00 80 1012.8
20260505060057 57 173 0.0 0.0 0.00 0.00 0.00 78 1012.9
20260505054532 57 173 0.0 0.0 0.00 0.00 0.00 77 1012.8
20260505053038 57 173 0.0 0.0 0.00 0.00 0.00 76 1012.8
20260505051529 57 173 0.0 0.0 0.00 0.00 0.00 75 1012.7
20260505041532 59 173 0.0 0.0 0.00 0.00 0.00 72 1012.6
20260505040032 59 173 0.0 0.0 0.00 0.00 0.00 73 1012.7
20260505034513 60 173 0.0 0.0 0.00 0.00 0.00 70 1012.7
20260505033008 60 173 0.0 0.0 0.00 0.00 0.00 69 1012.8
20260505031554 60 173 0.0 0.0 0.00 0.00 0.00 68 1012.8
20260505030045 61 173 0.0 0.0 0.00 0.00 0.00 66 1012.8
20260505024525 61 173 0.0 0.0 0.00 0.00 0.00 65 1012.8
20260505023023 62 173 0.0 0.0 0.00 0.00 0.00 64 1012.8
20260505021502 63 173 0.0 0.0 0.00 0.00 0.00 63 1012.7
20260505020106 64 173 0.0 0.0 0.00 0.00 0.00 60 1012.5
20260505014540 64 173 0.0 0.0 0.00 0.00 0.00 61 1012.2
20260505013037 65 173 0.0 0.0 0.00 0.00 0.00 58 1012.2
20260505011517 67 173 0.0 0.0 0.00 0.00 0.00 54 1012.1
20260505010011 68 173 0.0 0.0 0.00 0.00 0.00 52 1012.0
20260505004551 69 173 0.0 0.0 0.00 0.00 0.00 51 1011.9
20260505003053 71 173 0.0 0.0 0.00 0.00 0.00 49 1011.9
20260505001527 72 163 0.0 1.0 0.00 0.00 0.00 49 1011.7
20260505000024 73 158 0.0 4.0 0.00 0.00 0.00 48 1011.6
20260504234504 74 198 0.0 5.0 0.00 0.00 0.00 46 1011.7
20260504233109 75 180 0.0 6.0 0.00 0.00 0.00 44 1011.9
20260504231604 75 223 0.0 9.0 0.00 0.00 0.00 44 1011.9
20260504230049 76 195 0.0 12.0 0.00 0.00 0.00 43 1012.1
20260504224537 77 305 0.0 4.0 0.00 0.00 0.00 42 1012.2
20260504223018 77 185 1.0 8.0 0.00 0.00 0.00 40 1012.2
20260504221516 77 144 0.0 4.0 0.00 0.00 0.00 41 1012.3
20260504220100 77 284 0.0 6.0 0.00 0.00 0.00 41 1012.5
20260504214558 77 254 0.0 5.0 0.00 0.00 0.00 40 1012.5
20260504213037 78 228 0.0 7.0 0.00 0.00 0.00 43 1012.6
20260504211538 78 346 0.0 4.0 0.00 0.00 0.00 42 1012.7
20260504210017 78 63 0.0 7.0 0.00 0.00 0.00 43 1012.7
20260504204514 78 236 0.0 2.0 0.00 0.00 0.00 46 1012.8
20260504203107 77 217 0.0 6.0 0.00 0.00 0.00 44 1012.9
20260504201555 77 188 1.0 10.0 0.00 0.00 0.00 45 1013.1
20260504200035 76 241 0.0 5.0 0.00 0.00 0.00 47 1013.3
20260504194535 77 208 0.0 1.0 0.00 0.00 0.00 45 1013.6
20260504193017 76 201 0.0 5.0 0.00 0.00 0.00 49 1013.6
20260504191522 76 71 0.0 5.0 0.00 0.00 0.00 48 1013.9
20260504190121 76 209 0.0 5.0 0.00 0.00 0.00 49 1014.0
20260504184551 76 295 0.0 4.0 0.00 0.00 0.00 49 1014.0
20260504183032 76 294 0.0 7.0 0.00 0.00 0.00 50 1014.5
20260504181527 75 267 0.0 3.0 0.00 0.00 0.00 53 1014.7
20260504180007 75 235 0.0 3.0 0.00 0.00 0.00 51 1014.8
20260504174503 74 309 0.0 5.0 0.00 0.00 0.00 54 1015.1
20260504173044 74 201 0.0 7.0 0.00 0.00 0.00 55 1015.1
20260504171540 73 221 0.0 8.0 0.00 0.00 0.00 55 1015.4